Location: Plymouth
(43.7490°N, 87.9770°W)
Time: 19:48:31
(UTC-05:00)

Daily predictions for brighter satellites

Satellite Brightness Start Highest point End
(mag) Time Altitude Azimuth Time Altitude Azimuth Time Altitude Azimuth
Cosmos 1908 3.9 18:21:00 10° SSE 18:24:32 34° E 18:28:05 10° NNE
Cosmos 2237 4.2 18:18:57 10° NNW 18:24:41 67° ENE 18:30:22 10° SE
Cosmos 1500 Rocket 3.5 18:22:08 10° N 18:26:29 69° E 18:30:46 10° SSE
Cosmos 2237 Rocket 3.6 18:22:32 10° N 18:26:37 20° NE 18:30:41 10° E
MTI 4.0 18:26:10 10° NNE 18:29:18 47° E 18:32:23 10° S
Cosmos 44 3.4 18:25:37 10° S 18:29:44 42° ESE 18:33:49 10° NE
AQUARIUS 4.5 18:25:36 10° S 18:30:05 75° WSW 18:34:37 10° NNW
Aureole 2 Rocket 3.7 18:29:47 10° N 18:33:11 27° ENE 18:36:39 10° ESE
SL-8 R/B 3.9 18:28:57 10° WSW 18:33:46 72° NNW 18:38:36 10° ENE
RESURS DK-1 3.2 18:30:15 10° NW 18:34:19 57° WSW 18:38:21 10° S
Cosmos 2227 Rocket 3.8 18:33:41 10° ESE 18:36:13 13° E 18:38:45 10° ENE
SL-16 R/B 4.0 18:36:41 10° NNE 18:38:50 12° NE 18:41:00 10° ENE
Atlas Centaur 2 4.2 18:38:17 10° SSW 18:39:03 10° S 18:39:51 10° S
Gbstr 26 Del rocket 3.5 18:35:31 10° NW 18:40:17 73° NNE 18:46:15 10° ESE
Cosmos 1452 Rocket 3.7 18:35:20 10° NNW 18:40:37 79° WSW 18:45:51 10° SSE
Abrixas rocket 3.2 18:37:48 10° WNW 18:40:52 35° N 18:43:32 12° ENE
SMAP 3.8 18:36:26 10° S 18:41:00 58° W 18:45:37 10° NNW
Iridium 4 Rocket 4.1 18:38:06 10° SSE 18:43:23 42° E 18:48:54 10° NNE
SPOT 3 Rocket 3.7 18:38:33 10° SSE 18:43:37 55° ENE 18:48:43 10° N
Cosmos 2360 Rocket 3.0 18:41:45 10° NNW 18:47:17 56° WSW 18:52:48 10° S
Cosmos 1300 4.0 18:45:52 10° SE 18:48:43 20° E 18:51:35 10° NE
Sich 1 4.0 18:45:37 10° NNE 18:49:22 27° ENE 18:53:06 10° SE
Cosmos 1400 Rocket 4.3 18:47:47 10° NNW 18:51:34 41° W 18:55:17 10° SSW
COSMO-SKYMED 1 2.5 18:50:37 10° NNE 18:54:57 67° E 18:59:16 10° S
CZ-4C R/B 2.2 18:50:58 10° SSW 18:56:01 56° ESE 19:01:46 10° NE
Resurs 01 Rocket 3.7 18:57:31 10° NE 18:57:31 10° NE 18:57:49 10° NE
Cosmos 2151 3.9 18:53:00 10° NNW 18:57:10 52° W 19:01:16 10° S
Cosmos 2058 4.0 18:54:27 10° NNW 18:58:30 50° W 19:02:29 10° SSW
Cosmos 2098 Rocket 3.7 18:53:53 10° SSE 18:58:32 51° E 19:04:24 10° NNE
FREGAT/IRIS 4.0 19:00:58 20° ENE 19:00:58 20° ENE 19:03:03 10° NNE
COSMOS 2428 2.7 18:55:46 10° NNW 19:01:30 87° ENE 19:07:11 10° SSE
Abrixas 1.6 18:59:27 10° SW 19:01:33 61° SSE 19:02:09 38° E
FENGYUN 3A 3.7 18:56:56 10° SSE 19:02:13 57° ENE 19:07:32 10° N
Cosmos 2333 Rocket 2.4 18:58:43 10° NNW 19:04:20 50° ENE 19:09:54 10° SE
Cosmos 1805 Rocket 3.6 19:01:16 10° N 19:05:37 59° E 19:09:58 10° SSE
Cosmos 2219 3.2 19:00:45 10° SSW 19:06:25 66° ESE 19:12:07 10° NNE
Cosmos 44 Rocket 3.2 19:01:53 10° SSW 19:06:35 89° W 19:11:20 10° NE
MOS 1 4.5 19:02:56 10° S 19:08:37 77° WSW 19:14:20 10° NNW
Meteor 2-10 4.3 19:05:55 10° SSE 19:10:35 40° E 19:15:22 10° NNE
Cosmos 158 Rocket 4.1 19:06:02 10° SSW 19:11:06 79° WNW 19:16:22 10° NNE
ERS-2 4.3 19:09:29 10° SSW 19:12:46 30° W 19:16:04 10° NW
Cosmos 2297 Rocket 3.2 19:08:50 10° SSE 19:13:07 23° E 19:14:05 22° E
Cosmos 1666 Rocket 3.7 19:10:49 10° N 19:15:01 47° ENE 19:19:10 10° SSE
Cosmos 1048 Rocket 4.0 19:11:43 10° SSW 19:16:50 84° WNW 19:22:00 10° NNE
APEX 3.4 19:14:01 10° SW 19:16:58 48° WNW 19:19:32 11° NNE
YAOGAN 1 4.1 19:13:20 10° SSW 19:17:25 39° W 19:21:30 10° NNW
Cosmos 1633 Rocket 3.3 19:15:26 10° N 19:19:41 44° ENE 19:23:54 10° SSE
Cosmos 1726 1.9 19:16:25 10° S 19:20:06 77° E 19:23:48 10° NNE
Cosmos 1328 Rocket 4.5 19:16:42 10° SSE 19:25:10 - NNE 19:19:44 26° ESE
CZ-4 R/B 4.0 19:17:58 10° SSW 19:21:24 24° W 19:24:49 10° NW
EO 1 Del DPAF 4.4 19:18:32 10° N 19:22:13 46° WNW 19:25:54 10° SW
Envisat 4.3 19:24:49 21° NE 19:24:49 21° NE 19:28:02 10° NNE
Cosmos 2251 Rocket 4.3 19:19:52 10° SSE 19:24:23 29° E 19:25:27 27° ENE
SAR-Lupe-3 4.4 19:26:30 10° NNE 19:30:04 64° ESE 19:33:37 10° S
NOAA 12 4.3 19:26:38 10° S 19:31:55 73° WSW 19:37:16 10° NNW
Cosmos 2219 Rocket 2.2 19:28:22 10° NNW 19:33:59 84° WSW 19:39:37 10° SSE
FengYun 1-2 T 4.1 19:30:39 10° SSE 19:36:05 67° ENE 19:41:32 10° N
Cosmos 1934 Rocket 3.9 19:29:49 10° S 19:36:09 76° E 19:42:32 10° N
Cosmos 1821 Rocket 4.1 19:31:51 10° S 19:38:01 81° W 19:44:21 10° N
Meteor 2-2 Rocket 4.3 19:32:41 10° S 19:38:12 54° E 19:43:41 10° NNE
Cosmos 2221 3.8 19:34:43 10° SSW 19:38:49 42° WNW 19:42:59 10° N
Cosmos 2084 3.2 19:35:37 10° NW 19:39:26 79° SW 19:40:52 37° SSE
ALOS 2.8 19:36:09 10° S 19:40:46 60° W 19:45:25 10° NNW
Thor Agena Rocket 3.3 19:37:27 10° NNE 19:42:34 74° ESE 19:47:35 10° S
USA 267 4.1 19:48:34 27° SE 19:48:34 27° SE 19:53:34 10° S
Cosmos 1331 Rocket 3.8 19:44:21 10° NNW 19:49:36 83° ENE 19:52:43 25° SSE
SJ-6B 2.9 20:01:34 62° NNW 20:01:34 62° NNW 20:04:45 10° NNW
BREEZE-M DEB (TANK) 3.6 19:45:43 10° WNW 20:02:43 89° SSW 20:04:21 49° ESE
Lacrosse 5 rocket 3.6 20:02:31 10° NNW 20:04:48 15° N 20:04:48 15° N
Cosmos 2123 Rocket 4.2 20:01:26 10° NNW 20:07:39 69° W 20:13:52 10° S
MOS 1-B Rocket 3.8 20:06:24 44° SE 20:08:14 71° ENE 20:14:30 10° N
In-Cosmos 22 Rocket 4.5 20:03:03 10° NNW 20:08:47 71° W 20:14:34 10° S
H-2A R/B 3.5 20:07:17 27° SSW 20:09:10 51° W 20:13:01 10° NNW
Cosmos 2237 Rocket 2.2 20:05:38 10° NNW 20:11:22 78° WSW 20:13:38 38° SSE
Cosmos 1605 Rocket 3.9 20:06:25 10° S 20:12:32 84° W 20:18:39 10° N
Cosmos 1470 Rocket 4.0 20:09:01 10° N 20:12:26 52° N 20:12:26 52° N
Cosmos 967 Rocket 4.4 20:09:10 10° NNW 20:15:40 85° ENE 20:17:17 54° SE
SL-8 R/B 4.3 20:12:04 10° WNW 20:16:43 47° N 20:16:43 47° N
Abrixas rocket 4.4 20:14:30 10° WNW 20:16:04 25° WNW 20:16:04 25° WNW
Cosmos 1153 Rocket 4.3 20:11:52 10° S 20:17:58 74° E 20:24:11 10° NNE
Cosmos 1302 Rocket 3.8 20:13:43 10° NNW 20:18:55 85° NE 20:18:55 85° NE
Cosmos 2227 Rocket 2.1 20:13:44 10° SSW 20:19:24 88° WNW 20:21:12 46° NNE
SL-16 R/B 2.5 20:18:37 10° NNW 20:23:15 51° NNE 20:23:15 51° NNE
USA 234 4.0 20:23:45 34° NE 20:24:42 36° NNE 20:30:32 10° NW
Spot 2 Rocket 4.4 20:29:34 39° N 20:29:34 39° N 20:32:44 10° N
Resurs 01 Rocket 3.4 20:35:06 25° NNW 20:35:06 25° NNW 20:36:58 10° NNW
Meteor 2-17 Rocket 4.3 20:30:17 10° S 20:36:21 89° WNW 20:42:29 10° N
ATLAS 5 CENTAUR R/B 4.2 20:33:03 10° NNW 20:35:38 17° NNE 20:35:38 17° NNE
Meteor 2-3 Rocket 3.9 20:36:49 10° NNW 20:42:32 67° W 20:42:50 66° WSW
CZ-4C R/B 3.8 20:40:06 10° W 20:44:54 30° NW 20:48:07 19° N
Cosmos 2333 Rocket 4.2 20:43:36 10° NW 20:48:15 26° WSW 20:52:53 10° SSW
Cosmos 2297 Rocket 2.9 20:51:11 10° SW 20:56:00 51° W 20:56:00 51° W
